Regional Weather Roundup
Issued by NWS

Home | Current Version | Previous Version | Text Only | Print | Product List | Glossary On
Versions: 1 2 3 4 5 6 7 8 9 10 11 12 13 14 15 16 17 18 19 20 21 22 23 24 25 26 27 28 29 30 31 32 33 34 35 36 37 38 39 40 41 42 43 44 45 46 47 48 49 50
000
ASUS45 KTFX 211110
RWRMT
MONTANA REGIONAL WEATHER ROUNDUP
NATIONAL WEATHER SERVICE GREAT FALLS MT
500 AM MDT MON MAY 21 2018

NOTE: "FAIR" INDICATES FEW OR NO CLOUDS BELOW 12000 FEET WITH NO
SIGNIFICANT WEATHER AND/OR OBSTRUCTIONS TO VISIBILITY.

MTZ001>007-043-211200-
WEST OF THE DIVIDE

CITY           SKY/WX    TMP DP  RH WIND       PRES   REMARKS
KALISPELL      FAIR      51  48  89 CALM      29.91R
MISSOULA       MOCLDY    52  48  86 S5        29.93S
BUTTE          FAIR      44  42  93 CALM      29.99S
MULLAN PASS    CLOUDY    47  45  93 W5        30.01R
ANACONDA         N/A     45  41  87 CALM      29.97F
DEER LODGE       N/A     46  46 100 CALM      29.98S
HAMILTON         N/A     52  48  87 MISG      29.95R
PLAINS           N/A     55  51  86 CALM      29.94R
RONAN            N/A     50  48  93 CALM      29.92R
$$

MTZ008-052>055-211200-
SOUTHWEST MONTANA

CITY           SKY/WX    TMP DP  RH WIND       PRES   REMARKS
BOZEMAN        FAIR      49  46  90 S9        29.95S
DILLON         FAIR      46  43  89 SE6       29.96F
ENNIS          PTCLDY    48  41  76 SE8       30.01S
W YELLOWSTONE  FAIR      36  36 100 CALM      30.05S
$$

MTZ009-010-012-014-046-048-049-054-211200-
EAST SLOPES AND CENTRAL MONTANA

CITY           SKY/WX    TMP DP  RH WIND       PRES   REMARKS
CUT BANK       CLOUDY    50  44  80 NW5       29.90R
GREAT FALLS    FAIR      50  45  83 W9        29.90S
MALMSTROM AFB  MOCLDY    49  47  90 S5        29.89S
HELENA         MOCLDY    51  48  89 NW5       29.92S
AUGUSTA        MOCLDY    50  41  71 NW12      29.92S
BOWMANS CRNR   MOCLDY    50  41  71 W6        29.91S
CHOTEAU          N/A     48  43  81 W6        29.92S
POWER          FAIR      50  42  76 NW5       29.89S
RAYNESFORD     FAIR      50  45  81 CALM      29.91S
ULM            FAIR      52  47  83 CALM      29.90S
WHITE SULPHUR    N/A     48  45  87 N5        29.94F
$$

MTZ011-013-016-021-045-047-050-051-211200-
NORTH CENTRAL MONTANA

CITY           SKY/WX    TMP DP  RH WIND       PRES   REMARKS
HAVRE          FAIR      47  45  93 CALM      29.85R
LEWISTOWN      FAIR      44  42  93 SE6       29.91S
N BAR RANCH    FAIR      46  41  81 NW6       29.94S
CHINOOK          N/A     50  48  93 E3        29.85R
DENTON         FAIR      49  46  92 SW9       29.85F
GEYSER         FAIR      54  45  71 SW12      29.89F
GRASS RANGE    FAIR      47  44  87 W5        29.86S
JUDITH GAP     FAIR      49  45  83 SE5       29.93F
ROY            FAIR      47  44  88 W9        29.87S
STANFORD       FAIR      53  44  70 W6        29.91S
WINIFRED       FAIR      54  45  71 CALM      29.88S
$$

MTZ017>020-022>027-061-062-211200-
NORTHEAST MONTANA

CITY           SKY/WX    TMP DP  RH WIND       PRES   REMARKS
GLASGOW        FAIR      48  41  76 E12       29.88F
GLENDIVE       FAIR      45  39  79 S7        29.95F
JORDAN           N/A     46  41  82 SE3       29.88F
MALTA          CLEAR     45  43  93 E7        29.84F
SIDNEY         FAIR      45  36  70 CALM      29.97S
WOLF POINT     FAIR      46  40  79 E6        29.92F
PLENTYWOOD       N/A     46  34  61 CALM      29.95S
POPLAR           N/A     46  39  76 E8        29.93S
SCOBEY           N/A     47  33  58 SE9       29.91
$$

MTZ028>42-056>058-211200-
SOUTHCENTRAL AND SOUTHEAST MONTANA

CITY           SKY/WX    TMP DP  RH WIND       PRES   REMARKS
BAKER          FAIR      41  39  93 SE10      29.97S
BILLINGS       FAIR      50  48  93 W7        29.89S
LIVINGSTON     FAIR      51  47  86 NW12      29.94F
MILES CITY     FAIR      49  41  74 SE9       29.91S
BIG TIMBER     CLEAR     54  48  82 W15       29.93
EKALAKA          N/A     45  36  70 SE12      29.94
FORSYTH          N/A     48  46  93 E5        29.88S
HARLOWTON      FAIR      47  45  95 NW9       29.92F
LAUREL           N/A     50  48  93 W6        29.91S
$$

REGIONAL REPORTS...DAKOTAS

CITY           SKY/WX    TMP DP  RH WIND       PRES   REMARKS
WILLISTON      FAIR      50  36  58 S6        29.98F
MINOT          FAIR      42  35  76 SE3       30.02F
DICKINSON      FAIR      38  33  82 S6        29.99F
BEACH          FAIR      41  37  87 SE5       30.00S
CROSBY         FAIR      37  34  87 CALM      29.99F
TIOGA          FAIR      39  39 100 CALM      30.01F
WATFORD CITY   FAIR      41  34  75 SE5       29.98F
BISMARCK       FAIR      43  39  86 NE6       30.05F
GRAND FORKS    FAIR      44  37  76 SE5       30.08S
FARGO          FAIR      45  36  70 SE6       30.08S
BUFFALO SD       N/A     45  36  70 SE5       29.93S
RAPID CITY     FAIR      38  36  92 SE6       30.00F
$$

REGIONAL REPORTS...WYOMING/IDAHO/WASHINGTON

CITY           SKY/WX    TMP DP  RH WIND       PRES   REMARKS
GILLETTE       FAIR      45  38  76 S10       29.95F
SHERIDAN       FAIR      41  40  96 CALM      29.92S
BUFFALO WY     FAIR      47  42  83 W3        29.95F
CODY           FAIR      56  41  57 W5        29.97R
YELLOWSTONE LA   N/A     32  31  96 CALM      30.13S
IDAHO FALLS    FAIR      48  47  96 CALM      29.97S
SALMON         CLOUDY    49  47  93 SE5       29.96S
BOISE          CLOUDY    56  54  93 S5        29.91S
SPOKANE        MOCLDY    59  52  77 SW3       29.90S
$$

REGIONAL REPORTS...ALBERTA

CITY           SKY/WX    TMP DP  RH WIND       PRES   REMARKS
CALGARY        MOCLDY    52  37  58 NW8       29.89R
CARDSTON         N/A     50  39  66 SW9         N/A
EDMONTON       CLEAR     54  39  58 W8        29.81R
FORT MCMURRAY  CLEAR     45  39  81 SE5       29.73S
LETHBRIDGE     CLEAR     43  37  81 SW9       29.87R
LLOYDMINSTER   CLEAR     48  41  76 N5        29.75S
MEDICINE HAT   CLEAR     55  43  62 S9        29.80R
MILK RIVER       N/A     48  43  81 NW10        N/A
PEACE RIVER    MOCLDY    52  43  71 SW8       29.77R
PINCHER CREEK  CLEAR    N/A N/A N/A W9          N/A
$$

REGIONAL REPORTS...SASKATCHEWAN

CITY           SKY/WX    TMP DP  RH WIND       PRES   REMARKS
CORONACH         N/A     45  36  70 SE8         N/A
CYPRESS HILLS    N/A     50  43  76 S3          N/A
ESTEVAN        PTCLDY    43  32  65 SE10      29.99F
PRINCE ALBERT  PTCLDY    48  39  71 E6        29.81F
REGINA         PTCLDY    45  30  57 SE14      29.92S
ROCKGLEN         N/A     43  36  75 S12         N/A
SASKATOON      PTCLDY    55  39  54 S13       29.79F
SWIFT CURRENT  MOCLDY    54  41  62 S17       29.82F
VAL MARIE        N/A     41  36  81 NE3         N/A
$$



USA.gov is the U.S. government's official web portal to all federal, state and local government web resources and services.